{"data":{"norad_id":51962,"epoch":"2026-05-25T01:20:59.790912Z","epoch_age_seconds":70381,"freshness":"FRESH","line1":"1 51962U 22025G   26145.05624758  .00003999  00000+0  14057-3 0  9998","line2":"2 51962  53.1618  29.1117 0001399 101.6428 258.4730 15.31696048232711","mean_motion":15.31696048,"eccentricity":0.0001399,"inclination_deg":53.1618,"raan_deg":29.1117,"arg_perigee_deg":101.6428,"mean_anomaly_deg":258.473,"bstar":0.00014057,"rev_number":23271,"period_min":94.013430528875,"perigee_km":469.79361641758,"apogee_km":471.70993549709,"semimajor_km":6848.8887759573,"source":"CELESTRAK","updated_at":"2026-05-25T13:38:16.991826Z"}}